Monticello, KY

9:17 PM EDT on April 22, 2018 (GMT -0400)
Wayne County

Weather History for KEKQ - February, 2014

Change the Weather History Date:

Friday, February 14, 2014

  Actual Average Record
Temperature  
Mean Temperature 43 °F -  
Max Temperature 54 °F 50 °F 73 °F (1962)
Min Temperature 32 °F 28 °F 3 °F (1971)
Degree Days  
Heating Degree Days 22    
Moisture  
Dew Point 34 °F    
Average Humidity 77    
Maximum Humidity 100    
Minimum Humidity 37    
Precipitation  
Precipitation 0.60 in - - ()
Sea Level Pressure  
Sea Level Pressure 29.74 in    
Wind  
Wind Speed 13 mph (WSW)    
Max Wind Speed 20 mph    
Max Gust Speed 26 mph    
Visibility 6 miles    
Events Snow    
Averages and records for this station are not official NWS values.
T = Trace of Precipitation, MM = Missing Value Source: NWS Daily Summary

Daily Weather History Graph

Daily Weather History Graph

Search for Another Location

Airport or City:

Astronomy

Feb. 14, 2014 Rise Set
Actual Time 6:28 AM CST 5:18 PM CST
Civil Twilight 6:02 AM CST 5:45 PM CST
Nautical Twilight 5:31 AM CST 6:15 PM CST
Astronomical Twilight 5:01 AM CST 6:45 PM CST
Moon 5:20 PM CST (2/14) 5:56 AM CST (2/14)
Length of Visible Light 11h 42m
Length of Day
10h 49m
Full, 100% of the Moon is Illuminated
Feb 14
Full
Feb 14
Full
Feb 22
Last Quarter
Mar 1
New
Mar 8
First Quarter

Hourly Weather History & Observations

Time (CST) Temp. Windchill Dew Point Humidity Pressure Visibility Wind Dir Wind Speed Gust Speed Precip Events Conditions
12:56 AM 36.9 °F 28.2 °F 24.1 °F 60% 29.83 in 10.0 mi SW 13.8 mph - N/A   Clear
1:56 AM 36.9 °F 28.7 °F 25.2 °F 63% 29.82 in 10.0 mi SW 12.7 mph - N/A   Clear
2:56 AM 36.9 °F 28.7 °F 25.2 °F 63% 29.81 in 10.0 mi SW 12.7 mph - N/A   Clear
3:56 AM 36.0 °F 29.6 °F 25.2 °F 65% 29.83 in 10.0 mi SW 8.1 mph - N/A   Clear
4:56 AM 34.0 °F 26.6 °F 26.1 °F 73% 29.84 in 10.0 mi SW 9.2 mph - N/A   Clear
5:56 AM 32.0 °F 24.8 °F 25.2 °F 76% 29.86 in 10.0 mi SSW 8.1 mph - N/A   Clear
6:56 AM 32.0 °F 24.2 °F 26.1 °F 79% 29.86 in 10.0 mi SSW 9.2 mph - N/A   Clear
7:56 AM 37.9 °F 30.9 °F 28.0 °F 68% 29.87 in 10.0 mi SSW 10.4 mph - N/A   Clear
8:56 AM 41.9 °F 35.9 °F 29.1 °F 61% 29.87 in 10.0 mi SW 10.4 mph - N/A   Clear
9:56 AM 45.0 °F 40.1 °F 29.1 °F 54% 29.88 in 10.0 mi SW 9.2 mph - N/A   Clear
10:56 AM 47.8 °F - 31.1 °F 52% 29.85 in 10.0 mi SSW 12.7 mph - N/A   Clear
11:56 AM 52.0 °F - 32.0 °F 47% 29.78 in 10.0 mi WSW 12.7 mph - N/A   Clear
12:56 PM 52.9 °F - 31.1 °F 43% 29.71 in 10.0 mi SSW 11.5 mph - N/A   Clear
1:56 PM 52.9 °F - 30.0 °F 42% 29.72 in 10.0 mi WSW 10.4 mph - N/A   Clear
2:56 PM 54.0 °F - 28.0 °F 37% 29.69 in 10.0 mi SSW 13.8 mph 18.4 mph N/A   Scattered Clouds
3:56 PM 47.8 °F - 36.0 °F 63% 29.68 in 6.0 mi WSW 15.0 mph 25.3 mph N/A   Haze
4:42 PM 46.4 °F 39.0 °F 39.2 °F 76% 29.65 in 2.0 mi SSW 19.6 mph 26.5 mph N/A   Haze
4:48 PM 46.4 °F 39.5 °F 39.2 °F 76% 29.65 in 1.2 mi SW 17.3 mph 26.5 mph 0.02 in   Haze
4:56 PM 45.0 °F 38.9 °F 39.9 °F 82% 29.68 in 1.2 mi SW 12.7 mph 24.2 mph 0.03 in   Haze
5:04 PM 44.6 °F 39.7 °F 41.0 °F 87% 29.65 in 1.5 mi SW 9.2 mph - 0.01 in   Overcast
5:13 PM 44.6 °F 37.4 °F 39.2 °F 81% 29.66 in 2.0 mi SSW 16.1 mph 20.7 mph 0.04 in   Overcast
5:56 PM 43.0 °F 35.7 °F 39.9 °F 89% 29.70 in 1.8 mi SSW 15.0 mph 24.2 mph 0.13 in   Overcast
6:18 PM 42.8 °F 35.1 °F 39.2 °F 87% 29.66 in 1.5 mi SSW 16.1 mph 26.5 mph 0.10 in   Overcast
6:44 PM 42.8 °F 35.4 °F 39.2 °F 87% 29.66 in 2.5 mi SSW 15.0 mph 21.9 mph 0.18 in   Overcast
6:56 PM 41.9 °F 35.0 °F 38.8 °F 89% 29.69 in 3.0 mi SW 12.7 mph 21.9 mph 0.20 in   Overcast
7:37 PM 42.8 °F 37.0 °F 39.2 °F 87% 29.66 in 2.5 mi SW 10.4 mph - 0.07 in   Overcast
7:56 PM 41.9 °F 35.9 °F 39.9 °F 93% 29.68 in 2.5 mi SW 10.4 mph - 0.10 in   Overcast
8:16 PM 42.8 °F 35.8 °F 39.2 °F 87% 29.65 in 3.0 mi SW 13.8 mph - 0.03 in   Overcast
8:56 PM 41.0 °F 33.5 °F 38.8 °F 92% 29.69 in 3.0 mi WSW 13.8 mph - 0.06 in   Overcast
9:16 PM 39.2 °F 32.0 °F 37.4 °F 93% 29.67 in 3.0 mi West 11.5 mph - 0.02 in   Overcast
9:44 PM 37.4 °F 27.5 °F 37.4 °F 100% 29.68 in 2.5 mi WNW 18.4 mph - 0.05 in   Overcast
9:56 PM 36.9 °F 26.8 °F 36.0 °F 97% 29.72 in 3.0 mi WNW 18.4 mph - 0.06 in Snow Light Snow
9:59 PM 37.4 °F 27.5 °F 35.6 °F 93% 29.69 in 2.5 mi NW 18.4 mph - 0.00 in Snow Light Snow
10:19 PM 35.6 °F 26.2 °F 33.8 °F 93% 29.71 in 5.0 mi WNW 15.0 mph - 0.02 in Snow Light Snow
10:33 PM 35.6 °F 28.0 °F 35.6 °F 100% 29.71 in 5.0 mi WNW 10.4 mph - 0.02 in Snow Light Snow
10:56 PM 34.9 °F 24.9 °F 34.0 °F 97% 29.75 in 6.0 mi WNW 16.1 mph - 0.02 in Snow Light Snow
11:33 PM 33.8 °F 24.3 °F 32.0 °F 93% 29.76 in 2.5 mi NW 13.8 mph 21.9 mph 0.00 in Snow Light Snow
11:48 PM 33.8 °F 23.9 °F 32.0 °F 93% 29.77 in 1.8 mi NW 15.0 mph - 0.00 in Snow Light Snow
11:56 PM 32.9 °F 21.3 °F 32.0 °F 96% 29.81 in 1.8 mi NW 19.6 mph 26.5 mph 0.00 in Snow Light Snow